Dushanbe, Tajikistan

1:53 PM +05 on November 17, 2018 (GMT +0500)
Dushanbe

Weather History for UTDD - November, 2018

Change the Weather History Date:

Friday, November 9, 2018

  Actual Average Record
Temperature  
Mean Temperature 46 °F -  
Max Temperature 60 °F - - ()
Min Temperature 33 °F - - ()
Degree Days  
Heating Degree Days 18    
Moisture  
Dew Point 39 °F    
Average Humidity 71    
Maximum Humidity 100    
Minimum Humidity 32    
Precipitation  
Precipitation 0.00 in 0.06 in - ()
Sea Level Pressure  
Sea Level Pressure 30.18 in    
Wind  
Wind Speed 2 mph ()    
Max Wind Speed 7 mph    
Max Gust Speed -    
Visibility 3.2 miles    
Events Fog    
T = Trace of Precipitation, MM = Missing Value Source: Averaged Metar Reports

Daily Weather History Graph

Daily Weather History Graph

Search for Another Location

Airport or City:

Astronomy

Nov. 09, 2018 Rise Set
Actual Time 6:59 AM +05 5:17 PM +05
Civil Twilight 6:31 AM +05 5:45 PM +05
Nautical Twilight 6:00 AM +05 6:16 PM +05
Astronomical Twilight 5:28 AM +05 6:47 PM +05
Moon 8:22 AM +05 (11/9) 6:45 PM +05 (11/9)
Length of Visible Light 11h 13m
Length of Day
10h 17m
Waxing Crescent, 3% of the Moon is Illuminated
Nov 9
Waxing Crescent
Nov 15
First Quarter
Nov 23
Full
Nov 30
Last Quarter
Dec 7
New

Hourly Weather History & Observations

Time (+05) Temp. Dew Point Humidity Pressure Visibility Wind Dir Wind Speed Gust Speed Precip Events Conditions
12:00 AM 44.6 °F 39.2 °F 81% 30.24 in - Calm Calm - N/A   Scattered Clouds
12:30 AM 42.8 °F 39.2 °F 87% 30.24 in - NE 2.2 mph - N/A   Scattered Clouds
1:00 AM 41.0 °F 39.2 °F 93% 30.21 in - Calm Calm - N/A   Scattered Clouds
1:30 AM 41.0 °F 39.2 °F 93% 30.21 in 2.8 mi Calm Calm - N/A   Partly Cloudy
2:00 AM 41.0 °F 39.2 °F 93% 30.21 in - Calm Calm - N/A   Mist
2:30 AM 41.0 °F 39.2 °F 93% 30.21 in 1.4 mi Variable 2.2 mph - N/A   Mist
3:00 AM 39.2 °F 37.4 °F 93% 30.21 in 3.1 mi Variable 2.2 mph - N/A   Mist
3:30 AM 39.2 °F 39.2 °F 100% 30.18 in - Calm Calm - N/A   Mist
4:00 AM 41.0 °F 37.4 °F 87% 30.18 in - North 2.2 mph - N/A   Mist
4:30 AM 41.0 °F 37.4 °F 87% 30.18 in 3.1 mi NE 2.2 mph - N/A   Mist
5:00 AM 37 °F 35 °F 89% 30.35 in - Calm Calm - -   Scattered Clouds
5:00 AM 39.2 °F 35.6 °F 87% 30.18 in 3.1 mi Variable 2.2 mph - N/A   Scattered Clouds
5:30 AM 39.2 °F 35.6 °F 87% 30.18 in 1.2 mi Variable 2.2 mph - N/A   Partly Cloudy
6:00 AM 39.2 °F 37.4 °F 93% 30.18 in - Calm Calm - N/A   Mist
6:30 AM 39.2 °F 37.4 °F 93% 30.18 in - East 2.2 mph - N/A   Mist
7:00 AM 39.2 °F 37.4 °F 93% 30.18 in 2.2 mi Variable 2.2 mph - N/A   Mist
7:30 AM 37.4 °F 35.6 °F 93% 30.18 in 1.4 mi Variable 2.2 mph - N/A   Mostly Cloudy
8:00 AM 41 °F 37 °F 80% 30.32 in 31 mi Calm Calm - -   Scattered Clouds
8:00 AM 39.2 °F 35.6 °F 87% 30.18 in 0.7 mi Calm Calm - N/A Fog Patches of Fog
8:30 AM 39.2 °F 35.6 °F 87% 30.18 in 0.7 mi Calm Calm - N/A   Mist
9:00 AM 42.8 °F 39.2 °F 87% 30.18 in 0.5 mi Variable 2.2 mph - N/A Fog Fog
9:30 AM 46.4 °F 39.2 °F 76% 30.18 in 0.9 mi Variable 2.2 mph - N/A Fog Patches of Fog
10:00 AM 46.4 °F 41.0 °F 81% 30.18 in 1.2 mi Variable 2.2 mph - N/A   Mist
10:30 AM 50.0 °F 42.8 °F 76% 30.18 in 1.6 mi Variable 4.5 mph - N/A   Mist
11:00 AM 53 °F 37 °F 43% 30.20 in 31 mi Calm Calm - -   Scattered Clouds
11:00 AM 51.8 °F 42.8 °F 71% 30.18 in - Variable 2.2 mph - N/A   Mist
11:30 AM 53.6 °F 41.0 °F 62% 30.18 in - Variable 2.2 mph - N/A   Smoke
12:00 PM 55.4 °F 41.0 °F 58% 30.15 in 3.7 mi Variable 2.2 mph - N/A   Partly Cloudy
12:30 PM 57.2 °F 41.0 °F 55% 30.15 in 3.1 mi Variable 2.2 mph - N/A   Smoke
1:00 PM 57.2 °F 39.2 °F 51% 30.15 in 4.3 mi Variable 4.5 mph - N/A   Partly Cloudy
1:30 PM 59.0 °F 39.2 °F 48% 30.15 in 5.0 mi Variable 2.2 mph - N/A   Partly Cloudy
2:00 PM 59 °F 37 °F 32% 30.19 in 31 mi Calm Calm - -   Scattered Clouds
2:00 PM 59.0 °F 37.4 °F 45% 30.12 in 5.0 mi Variable 4.5 mph - N/A   Scattered Clouds
2:30 PM 60.8 °F 37.4 °F 42% 30.12 in 5.6 mi Variable 4.5 mph - N/A   Scattered Clouds
3:00 PM 60.8 °F 37.4 °F 42% 30.12 in 5.6 mi Variable 4.5 mph - N/A   Scattered Clouds
3:30 PM 60.8 °F 39.2 °F 45% 30.12 in 6.2 mi Variable 4.5 mph - N/A   Mostly Cloudy
4:00 PM 59.0 °F 39.2 °F 48% 30.12 in 5.6 mi Variable 4.5 mph - N/A   Partly Cloudy
4:30 PM 59.0 °F 42.8 °F 55% 30.12 in 4.3 mi SSW 4.5 mph - N/A   Mostly Cloudy
5:00 PM 57 °F 38 °F 37% 30.23 in 31 mi Calm Calm - -   Partly Cloudy
5:00 PM 57.2 °F 41.0 °F 55% 30.12 in 3.7 mi SSW 2.2 mph - N/A   Mostly Cloudy
5:30 PM 55.4 °F 41.0 °F 58% 30.12 in 3.7 mi WSW 4.5 mph - N/A   Scattered Clouds
6:00 PM 55.4 °F 41.0 °F 58% 30.12 in 5.0 mi West 6.7 mph - N/A   Unknown
6:30 PM 55.4 °F 41.0 °F 58% 30.12 in 3.7 mi WNW 4.5 mph - N/A   Unknown
7:00 PM 53.6 °F 41.0 °F 62% 30.15 in 4.3 mi Variable 2.2 mph - N/A   Partly Cloudy
7:30 PM 51.8 °F 41.0 °F 67% 30.15 in 3.1 mi South 4.5 mph - N/A   Mostly Cloudy
8:00 PM 52 °F 41 °F 56% 30.29 in - Calm Calm - -   Partly Cloudy
8:00 PM 51.8 °F 41.0 °F 67% 30.15 in 3.1 mi Variable 2.2 mph - N/A   Scattered Clouds
8:30 PM 51.8 °F 41.0 °F 67% 30.15 in 3.7 mi Calm Calm - N/A   Partly Cloudy
9:00 PM 51.8 °F 41.0 °F 67% 30.15 in 3.1 mi Calm Calm - N/A   Partly Cloudy
9:30 PM 50.0 °F 41.0 °F 71% 30.18 in - Calm Calm - N/A   Mist
10:00 PM 51.8 °F 42.8 °F 71% 30.18 in - SE 2.2 mph - N/A   Partly Cloudy
11:00 PM 49 °F 43 °F 74% 30.33 in - Calm Calm - -   Partly Cloudy
11:00 PM 48.2 °F 42.8 °F 82% 30.18 in - East 4.5 mph - N/A   Scattered Clouds
11:30 PM 48.2 °F 42.8 °F 82% 30.18 in - East 4.5 mph - N/A   Mostly Cloudy